Location: Les Salelles
(44.4192°N, 4.1044°E)
Time: 16:58:10
(UTC+00:00)

ATLAS 2AS CENTAUR R/B - Pass Details

Date: 20 January 2021
Orbit: 947 x 1265 km, 63.7° (Epoch: 13 February)

Event Time Altitude Azimuth Distance (km) Brightness Sun altitude
Rises 18:09:02 0° 263° (W) 4,217 7.6 -16.3°
Reaches altitude 10° 18:12:23 10° 275° (W) 3,252 6.4 -16.9°
Maximum altitude 18:18:57 28° 331° (NNW) 2,172 4.5 -18.0°
Drops below altitude 10° 18:25:22 10° 28° (NNE) 3,169 4.8 -19.2°
Enters shadow 18:25:29 10° 29° (NNE) 3,200 4.8 -19.2°
